Location: Unspecified
(0.0000°N, 0.0000°E)
Time: 12:48:21
(UTC+00:00)

Cosmos 80 Rocket - Pass Details

Date: 28 September 2021
Orbit: 1361 x 1510 km, 56.1° (Epoch: 16 October)

Event Time Altitude Azimuth Distance (km) Brightness Sun altitude
Rises 19:36:55 0° 338° (NNW) 4,593 8.2 -26.6°
Reaches altitude 10° 19:40:01 10° 343° (NNW) 3,598 7.6 -27.4°
Enters shadow 19:48:43 57° 59° (ENE) 1,659 5.3 -29.5°
